Temperature
16 16 15 15 15 15 15 15 14 14 14 14 14 14 13 13 13 13 13 13 13 13 13 13 13 13 13 13 13 13 12 13 13 12 12 12 12 12 12 12 12 12 12
16 16 15 15 15 15 15 14 14 14 14 14 13 13 13 13 13 13 13 13 13 13 13 13 13 13 13 13 12 12 12 12 12 12 12 12 12 11 11 11 11 11 11
16 16 15 15 15 14 14 14 14 14 14 13 13 13 13 13 13 13 13 13 13 13 13 12 12 12 12 12 12 12 12 12 12 12 12 12 13 12 11 11 11 11 11
16 15 15 14 14 14 14 14 14 14 13 13 13 13 13 13 13 12 12 13 12 12 12 12 12 12 12 12 12 12 11 11 11 11 11 11 11 12 11 11 11 10 10
15 15 15 15 14 14 14 14 14 14 13 13 13 13 13 12 12 12 12 12 12 12 12 12 12 12 12 12 11 11 11 11 11 11 11 11 11 11 11 11 10 10 10
15 15 14 14 14 14 14 14 14 14 13 13 13 13 12 12 12 12 12 12 12 12 12 11 11 11 11 11 11 11 11 10 10 10 10 10 10 11 11 11 10 10 9
14 14 14 14 14 14 14 14 14 13 13 13 13 12 12 12 12 12 11 11 11 11 11 11 11 11 11 11 11 10 10 10 10 10 10 10 10 10 10 10 10 9 9
14 14 14 14 14 14 13 13 13 13 13 13 12 12 12 12 11 11 11 11 11 11 11 11 11 11 11 10 10 10 10 10 9 9 9 9 9 9 9 9 9 10 10
14 14 14 13 13 13 13 13 13 13 12 12 12 12 11 11 11 11 11 11 11 11 11 11 11 10 10 10 10 10 10 9 9 9 9 9 9 9 9 9 9 9 10
14 13 13 13 13 13 13 13 12 12 12 12 12 11 11 11 11 11 11 11 11 11 11 11 10 10 10 10 10 10 9 9 9 9 9 9 9 9 9 9 9 9 9
14 13 13 13 13 13 13 13 12 12 12 12 11 11 11 11 11 11 10 10 10 10 10 10 10 10 10 10 9 9 9 9 9 9 9 9 9 8 8 8 8 8 8
13 13 13 12 12 12 12 12 12 11 11 11 11 11 11 11 10 10 10 10 10 10 10 10 10 10 10 10 9 9 9 9 9 9 8 8 8 8 8 8 8 8 8
13 13 12 12 12 12 12 12 11 11 11 11 10 10 10 10 10 10 10 10 10 10 10 10 10 10 10 9 9 9 9 9 9 8 8 8 8 8 8 8 8 8 8
13 12 12 12 12 12 11 11 11 11 11 10 10 10 10 10 10 10 10 10 10 10 10 10 10 9 9 9 9 9 9 8 8 8 8 8 8 8 8 8 8 7 7
12 12 12 11 11 11 11 11 11 11 10 10 10 10 10 9 9 9 9 9 9 9 9 9 9 9 9 9 9 9 8 8 8 8 8 8 8 8 8 7 7 7 7
12 12 11 11 11 11 11 10 10 10 10 10 10 10 9 9 9 9 9 9 9 9 9 9 9 9 9 9 9 9 8 8 8 8 8 8 7 8 8 7 7 7 7
12 11 11 11 11 10 10 10 10 10 10 10 10 9 9 9 9 8 8 8 8 8 8 8 8 8 9 9 9 8 8 8 8 8 7 7 7 7 7 7 7 7 7
11 11 11 10 10 10 10 10 9 9 9 9 9 9 9 8 8 8 8 8 8 8 8 8 8 8 8 8 8 8 8 8 8 7 7 7 7 7 7 7 7 6 6
11 11 10 10 10 10 9 9 9 9 9 9 8 8 8 8 8 8 8 8 7 7 8 8 8 8 8 8 8 8 8 7 7 7 7 7 7 7 7 7 6 6 6
10 10 10 10 9 9 9 9 9 8 8 8 8 8 8 8 8 8 7 7 7 7 7 7 7 7 7 8 8 7 7 7 7 7 7 7 7 7 6 6 6 6 6
10 10 9 9 9 9 8 8 8 8 8 8 8 8 8 7 7 7 7 7 7 7 7 6 7 7 7 7 7 7 7 7 7 7 7 7 6 6 6 6 6 6 6
10 9 9 9 9 8 8 8 8 8 7 7 7 7 7 7 7 7 7 7 6 6 6 6 6 7 7 7 7 7 7 6 6 6 6 6 6 6 6 6 6 6 5
9 9 8 8 8 8 8 8 7 7 7 7 7 7 7 7 7 6 6 6 6 6 6 6 6 6 6 6 6 6 6 6 6 6 6 6 6 6 6 6 6 5 5
8 8 8 8 8 7 7 7 7 7 7 6 6 6 6 6 6 6 6 6 6 6 6 6 6 6 6 6 6 6 6 5 5 5 5 5 5 5 5 5 5 5 5
8 8 7 7 7 7 7 7 7 6 6 6 6 6 6 6 6 6 6 6 6 5 5 5 5 5 5 5 5 5 5 5 5 5 5 5 5 5 5 5 5 5 5
7 7 7 7 7 6 6 6 6 6 6 6 5 5 5 5 5 5 5 5 5 5 5 5 5 5 5 5 5 5 5 5 5 4 4 4 4 4 4 5 4 4 4
Wind_Speed
4 4 4 3 3 3 2 2 2 2 2 1 1 1 2 2 2 3 4 4 4 4 4 3 3 3 3 3 3 3 3 3 3 3 3 4 5 5 5 5 5 6 7
5 5 3 3 3 3 2 2 3 2 2 1 0 1 1 1 2 3 3 4 4 3 3 3 2 2 2 3 3 2 2 2 1 1 0 1 2 3 4 4 4 5 6
6 6 5 4 3 3 2 2 3 3 3 2 1 1 1 0 1 1 2 3 3 3 3 3 3 2 2 2 2 1 2 1 1 2 2 1 1 1 2 4 4 4 4
5 5 5 5 4 3 3 3 3 3 3 3 2 2 1 0 1 1 1 2 3 3 3 3 2 2 2 1 1 1 1 0 0 1 2 2 1 1 0 1 3 4 4
5 5 5 5 4 3 3 3 3 3 3 3 2 2 1 0 0 0 1 1 2 2 2 2 2 2 1 1 1 0 1 0 1 1 1 1 1 2 1 1 0 1 3
3 4 4 4 4 3 3 2 2 2 2 2 2 2 1 1 1 0 0 1 1 1 1 1 1 2 1 1 1 1 1 1 1 1 1 1 1 1 1 1 1 1 1
3 3 4 4 4 4 3 3 3 3 2 2 2 2 2 2 1 1 1 1 0 0 0 1 1 1 1 1 1 1 1 1 1 1 1 1 2 2 2 1 1 1 1
2 3 3 3 3 4 3 3 3 3 2 2 1 1 1 1 1 1 1 1 1 1 1 1 1 1 1 1 1 0 0 0 1 1 1 1 1 1 1 1 1 2 1
2 2 2 3 3 3 3 3 3 3 2 2 2 1 1 1 1 1 1 1 0 0 1 1 1 1 1 1 1 1 1 1 1 1 0 0 0 1 1 1 2 3 3
1 1 1 2 2 2 2 3 3 3 2 2 2 1 2 1 1 1 1 1 1 0 1 1 2 2 2 2 1 1 1 1 0 1 1 1 1 1 1 1 2 3 3
1 1 1 1 1 1 1 3 3 3 2 2 2 2 2 1 1 1 1 2 1 1 1 2 1 1 2 2 2 2 2 2 1 1 1 2 1 1 1 2 2 2 2
1 1 1 1 1 1 1 1 2 3 2 2 2 2 2 2 2 2 2 2 2 2 2 2 3 2 2 2 2 2 2 2 2 2 2 2 1 2 2 2 3 2 3
1 1 1 1 1 0 0 1 1 2 2 2 2 2 2 2 2 2 2 2 2 2 3 3 3 3 3 2 2 2 3 3 3 2 2 3 3 3 3 3 3 3 2
1 0 1 0 0 0 0 1 1 2 2 2 2 3 2 2 2 2 2 3 3 3 3 4 4 4 4 3 3 2 3 3 3 3 3 3 4 4 4 4 4 3 3
1 1 1 0 0 0 0 0 1 1 2 3 3 3 3 3 3 3 3 3 3 3 3 4 4 4 3 3 3 3 3 3 3 4 4 4 3 4 3 3 4 4 4
2 1 1 1 1 1 1 1 1 1 2 3 3 3 3 3 3 3 4 3 3 4 4 4 5 5 4 4 4 4 4 4 4 4 4 4 4 4 4 5 5 5 5
2 2 2 2 2 2 1 2 2 1 2 2 3 3 4 4 4 4 4 4 5 5 5 5 5 6 5 5 6 6 5 5 5 5 5 4 4 5 5 5 6 6 6
3 3 2 2 2 1 1 2 2 2 2 3 3 3 4 5 5 5 5 5 5 5 5 5 6 6 5 6 7 7 7 6 6 6 6 5 5 4 4 5 6 6 6
3 3 3 3 2 1 1 2 2 2 3 3 4 4 4 5 5 6 6 6 6 6 6 6 6 7 7 7 7 7 6 6 7 6 6 6 6 3 4 5 6 6 5
2 2 2 2 2 1 1 2 2 3 3 4 4 4 4 5 5 6 6 6 6 6 6 6 7 8 8 7 8 8 6 6 6 6 6 7 7 4 5 6 6 7 6
2 1 1 2 2 2 2 3 3 3 4 4 4 4 4 4 5 5 5 5 5 6 6 7 7 7 7 7 8 8 6 6 7 6 6 6 6 7 7 8 7 7 7
1 1 1 2 2 2 3 3 3 3 3 3 3 3 3 3 3 4 4 4 5 5 6 6 6 5 6 6 7 9 9 7 7 7 6 5 5 8 8 8 6 6 6
1 1 2 2 1 2 3 3 3 3 2 3 3 3 3 3 3 3 3 3 4 4 5 5 5 5 5 5 6 8 9 9 8 7 6 6 6 7 7 8 7 6 6
1 1 2 2 2 2 2 3 3 2 3 3 3 3 3 3 3 3 3 3 4 4 4 5 5 5 4 4 4 5 6 7 8 7 6 7 7 7 7 6 6 6 6
1 2 2 2 2 2 2 2 2 2 3 4 3 3 3 3 3 3 3 4 4 4 5 5 5 5 5 4 4 5 5 5 5 5 6 5 4 5 5 5 5 6 6
1 1 2 2 2 2 2 2 2 3 4 4 4 3 3 3 3 3 3 3 4 4 5 6 6 5 5 5 6 7 7 7 6 6 6 6 6 6 6 6 6 6 6
Wind_Direction
184 171 166 166 169 163 152 137 132 129 126 118 96 67 56 40 43 38 36 33 31 35 48 46 46 50 69 66 70 84 89 75 68 78 67 60 60 61 62 50 47 51 47
194 180 175 179 181 175 169 165 166 162 162 140 97 55 54 38 37 34 31 32 31 35 42 53 59 63 83 88 80 87 85 81 49 23 34 68 85 61 55 53 46 46 48
205 190 185 187 189 192 190 193 183 166 160 159 146 130 115 106 74 40 31 25 27 35 42 51 59 64 78 95 89 88 88 85 75 22 348 326 26 49 66 50 49 46 42
203 193 187 183 190 198 197 200 185 172 166 168 172 176 176 352 359 9 40 37 37 49 54 57 59 69 69 89 95 77 74 36 56 52 17 4 3 289 132 73 53 47 43
200 192 186 185 188 188 190 193 184 173 170 184 176 195 201 213 145 28 30 24 51 54 65 65 70 67 70 69 62 58 32 14 352 13 26 24 350 315 283 265 341 48 41
186 190 183 178 180 176 175 169 167 162 172 190 191 198 204 206 186 174 7 349 31 57 81 74 83 78 75 68 64 82 85 30 10 349 344 317 306 311 310 285 278 340 15
159 172 182 185 183 174 166 165 164 169 177 193 209 220 229 229 229 236 243 290 329 346 113 127 99 91 94 80 72 86 91 83 19 6 358 351 338 324 299 267 280 306 312
148 165 175 182 187 184 178 175 172 178 183 192 207 235 244 246 248 255 261 269 299 324 52 138 135 134 139 126 105 108 129 47 14 26 5 347 354 329 299 272 268 268 265
144 160 168 173 183 191 188 189 190 192 187 192 200 207 225 234 251 252 249 247 282 43 109 144 154 160 166 180 171 201 210 220 278 335 13 352 10 316 306 274 268 278 270
143 143 163 173 182 193 196 190 190 194 194 196 199 197 209 212 251 257 239 243 223 166 186 180 179 167 171 182 188 221 246 236 240 277 274 287 293 302 273 272 282 291 288
168 150 147 153 156 148 179 192 192 194 198 202 204 202 202 194 208 234 247 249 225 208 208 198 187 185 195 198 200 214 214 231 236 238 253 261 264 252 243 250 259 271 274
156 146 127 123 135 143 179 198 205 200 203 209 203 201 201 200 211 227 237 240 231 225 223 209 205 200 200 206 214 216 219 229 240 246 251 257 251 261 261 254 247 253 261
153 126 109 112 129 136 217 222 228 220 213 216 218 218 219 221 229 238 232 226 229 230 229 221 216 211 209 209 219 228 227 232 243 253 257 260 263 259 254 250 249 245 255
168 112 112 130 113 106 254 257 253 237 217 216 224 232 239 238 239 239 232 228 229 233 233 231 221 217 218 219 222 232 240 243 248 256 262 260 264 268 260 248 246 243 245
248 254 221 228 212 213 298 293 288 253 222 218 227 234 240 237 235 241 237 237 241 243 238 231 226 222 223 227 231 236 244 252 254 255 257 262 278 296 281 269 258 251 247
264 264 258 252 246 251 266 271 289 292 242 226 232 243 248 242 235 239 241 239 243 245 239 232 227 224 224 208 232 253 247 253 256 257 257 252 240 244 248 267 275 274 261
260 261 259 252 250 255 257 260 272 275 267 257 248 245 245 247 243 241 240 238 239 241 240 238 236 234 225 206 218 237 254 252 254 258 256 256 251 243 243 238 239 250 262
265 265 265 262 264 259 264 269 265 263 267 272 270 264 253 250 252 248 242 241 244 242 243 245 244 243 231 215 220 227 244 249 251 253 254 253 251 247 259 258 253 252 249
264 263 264 263 256 248 254 254 254 268 271 272 274 272 263 256 251 250 247 244 242 244 244 244 242 241 237 221 220 227 246 248 251 253 256 255 251 234 260 262 261 260 255
283 279 274 265 249 250 251 248 255 266 276 279 280 280 272 263 258 257 257 252 250 249 251 249 244 243 244 222 217 228 245 250 253 254 251 246 252 236 237 254 261 262 262
300 292 264 252 247 238 241 252 264 274 283 285 287 289 282 274 270 269 264 258 252 253 254 254 250 246 246 227 214 222 242 250 255 254 251 245 229 243 246 256 259 263 272
314 289 269 266 248 236 246 260 270 285 290 289 289 289 291 291 282 275 271 262 254 252 256 256 253 250 245 238 223 221 238 259 258 258 258 255 231 247 253 253 262 266 263
300 287 278 271 252 241 252 265 278 289 287 287 290 292 297 294 286 275 270 268 264 258 256 255 254 254 251 238 225 226 234 244 255 262 270 273 254 251 251 245 246 247 250
305 292 278 271 264 258 266 280 288 280 276 282 289 294 294 293 289 286 279 276 274 272 270 266 265 262 257 250 241 239 241 239 247 258 255 245 239 239 245 243 238 241 247
296 278 272 271 275 268 281 292 288 279 278 283 286 289 291 291 291 290 288 277 279 283 280 274 274 273 268 267 270 265 255 255 258 267 263 257 247 242 242 243 244 243 245
291 285 288 288 283 270 282 288 286 281 279 282 285 287 285 283 283 286 295 298 280 293 290 293 287 284 290 302 273 265 265 258 246 249 251 251 248 246 245 245 246 244 243
Height
1534 1535 1536 1537 1538 1538 1539 1539 1539 1539 1539 1539 1538 1538 1538 1538 1537 1537 1536 1536 1535 1535 1534 1534 1534 1533 1533 1533 1533 1532 1532 1531 1531 1530 1530 1530 1529 1529 1528 1527 1527 1526 1525
1532 1534 1535 1536 1536 1537 1537 1538 1538 1538 1538 1538 1538 1538 1538 1537 1537 1536 1536 1535 1535 1534 1534 1534 1533 1533 1532 1532 1532 1532 1532 1531 1531 1531 1531 1531 1532 1530 1529 1528 1527 1527 1526
1530 1532 1533 1534 1534 1535 1536 1536 1537 1537 1537 1537 1537 1537 1537 1537 1537 1536 1535 1535 1534 1533 1533 1533 1533 1532 1532 1532 1532 1532 1532 1532 1532 1532 1532 1532 1531 1531 1531 1529 1528 1528 1527
1529 1530 1531 1532 1533 1534 1535 1535 1536 1536 1536 1537 1536 1537 1537 1537 1536 1536 1535 1534 1533 1532 1532 1532 1532 1532 1532 1532 1532 1532 1532 1531 1532 1531 1531 1532 1531 1531 1531 1531 1530 1529 1528
1527 1528 1530 1531 1532 1533 1533 1534 1535 1535 1535 1536 1535 1535 1536 1536 1535 1535 1534 1534 1533 1532 1531 1531 1531 1531 1531 1531 1531 1531 1531 1531 1531 1531 1531 1531 1531 1531 1531 1530 1530 1529 1528
1526 1527 1528 1529 1530 1531 1532 1532 1533 1533 1534 1534 1534 1534 1535 1534 1534 1534 1533 1533 1532 1531 1531 1530 1530 1530 1530 1530 1530 1530 1530 1530 1530 1530 1530 1530 1530 1530 1530 1530 1529 1529 1528
1524 1525 1526 1527 1528 1529 1530 1530 1531 1531 1532 1532 1533 1533 1533 1533 1533 1532 1532 1532 1531 1530 1530 1529 1529 1529 1529 1529 1529 1529 1529 1529 1529 1529 1529 1529 1529 1529 1529 1529 1529 1528 1528
1524 1524 1525 1526 1527 1528 1528 1529 1529 1529 1530 1530 1531 1531 1531 1531 1531 1531 1531 1531 1530 1529 1529 1528 1528 1528 1528 1528 1528 1528 1528 1528 1528 1528 1528 1528 1527 1528 1528 1528 1528 1528 1528
1522 1523 1524 1525 1525 1526 1526 1527 1528 1528 1528 1528 1529 1529 1529 1529 1529 1529 1529 1529 1529 1528 1528 1527 1527 1527 1527 1527 1527 1527 1527 1527 1527 1527 1527 1527 1527 1526 1526 1527 1527 1528 1526
1522 1522 1523 1523 1524 1524 1525 1526 1526 1526 1526 1526 1527 1527 1527 1527 1527 1527 1527 1527 1527 1527 1527 1527 1527 1526 1526 1526 1526 1526 1525 1526 1526 1525 1525 1525 1526 1525 1525 1525 1525 1525 1526
1521 1521 1522 1522 1523 1523 1523 1524 1524 1524 1524 1525 1525 1525 1525 1525 1525 1525 1525 1525 1525 1525 1525 1525 1525 1525 1525 1525 1525 1525 1524 1524 1524 1524 1524 1524 1524 1524 1524 1524 1524 1524 1524
1520 1520 1521 1521 1521 1521 1521 1522 1522 1523 1523 1523 1523 1523 1523 1523 1523 1523 1523 1523 1523 1523 1523 1523 1524 1524 1524 1524 1524 1524 1523 1523 1523 1523 1523 1523 1522 1522 1522 1522 1522 1522 1521
1519 1519 1519 1519 1519 1519 1520 1520 1521 1521 1521 1521 1521 1522 1521 1521 1521 1521 1521 1521 1521 1521 1521 1521 1522 1522 1522 1522 1522 1522 1522 1522 1522 1521 1521 1521 1521 1521 1520 1520 1520 1519 1519
1518 1518 1518 1518 1518 1518 1518 1519 1519 1519 1519 1519 1519 1519 1519 1519 1519 1519 1519 1518 1518 1519 1519 1519 1520 1520 1520 1520 1520 1520 1520 1520 1520 1520 1519 1519 1519 1518 1518 1517 1517 1517 1516
1516 1516 1516 1517 1517 1517 1517 1517 1517 1517 1517 1517 1517 1517 1517 1517 1516 1516 1516 1516 1516 1516 1516 1516 1517 1517 1518 1518 1518 1518 1518 1518 1518 1517 1517 1517 1516 1515 1515 1515 1514 1514 1514
1514 1514 1514 1515 1515 1515 1514 1514 1514 1514 1515 1515 1515 1514 1514 1514 1513 1513 1513 1513 1513 1513 1513 1514 1514 1514 1515 1515 1515 1515 1515 1515 1515 1515 1514 1514 1513 1512 1512 1511 1511 1511 1511
1512 1512 1512 1513 1512 1513 1512 1512 1512 1512 1512 1512 1512 1512 1511 1511 1511 1510 1510 1510 1510 1510 1510 1510 1511 1511 1511 1512 1512 1512 1512 1512 1512 1512 1511 1511 1510 1509 1509 1508 1508 1507 1507
1511 1510 1510 1510 1510 1510 1510 1511 1510 1510 1510 1509 1509 1509 1509 1508 1508 1507 1507 1506 1506 1506 1506 1507 1507 1507 1508 1508 1508 1509 1509 1509 1509 1508 1508 1507 1507 1506 1506 1505 1505 1504 1503
1509 1508 1508 1508 1508 1508 1508 1508 1508 1508 1507 1507 1506 1506 1506 1505 1505 1504 1503 1503 1503 1503 1502 1503 1503 1503 1504 1504 1505 1505 1505 1505 1505 1505 1504 1504 1503 1503 1502 1501 1501 1500 1499
1506 1506 1505 1506 1505 1506 1506 1506 1506 1505 1505 1504 1504 1503 1502 1502 1501 1501 1500 1499 1499 1499 1499 1498 1499 1499 1500 1500 1500 1501 1501 1501 1501 1501 1500 1499 1499 1499 1498 1498 1497 1496 1496
1504 1503 1503 1503 1503 1503 1503 1503 1503 1503 1502 1502 1501 1500 1499 1498 1498 1497 1496 1496 1495 1495 1494 1494 1494 1495 1495 1496 1496 1496 1497 1497 1497 1496 1496 1495 1495 1494 1494 1493 1493 1492 1491
1501 1501 1501 1501 1501 1500 1501 1501 1501 1500 1499 1498 1498 1497 1496 1495 1494 1493 1492 1492 1491 1491 1491 1490 1490 1490 1491 1491 1491 1492 1492 1492 1492 1492 1491 1491 1490 1490 1489 1489 1488 1488 1487
1499 1499 1499 1498 1498 1498 1498 1498 1498 1497 1496 1495 1495 1494 1493 1492 1491 1490 1489 1489 1488 1487 1487 1487 1486 1486 1486 1486 1487 1487 1487 1487 1487 1487 1486 1486 1485 1485 1484 1484 1483 1483 1482
1497 1497 1497 1496 1496 1495 1495 1495 1495 1494 1494 1493 1492 1491 1490 1489 1488 1487 1486 1485 1485 1484 1483 1483 1482 1482 1481 1482 1482 1482 1482 1482 1482 1482 1481 1481 1480 1480 1479 1479 1478 1478 1477
1495 1495 1495 1494 1494 1493 1493 1493 1492 1492 1491 1490 1489 1488 1487 1486 1485 1484 1483 1482 1481 1480 1480 1479 1479 1478 1477 1477 1477 1477 1477 1477 1477 1477 1476 1476 1475 1475 1474 1474 1473 1473 1472
1494 1493 1493 1492 1492 1491 1491 1490 1490 1489 1488 1487 1486 1485 1484 1483 1482 1480 1479 1478 1477 1476 1475 1474 1474 1473 1473 1472 1472 1472 1472 1472 1472 1472 1471 1471 1470 1470 1469 1469 1468 1468 1467